When you browse on this site, cookies collect data to enhance your experience and personalize the content and advertising you see.
Visit our Privacy Policy to learn more. By continuing to use the site, you agree to this use of cookies and data.
  • Em Portugal
  • Lista de países
  • Para 7 dias
  • Temperatura da água
  • Mapa do tempo
  • Widgets de tempo
  • user-avatar
    Iniciar Sessão

    Previsão horária em Veleshino 2

    Hoje, 19 Setembro, Quinta-feira

    Tempo Temperatura Precipitação Vento Pressão Humidade
    00:00 +6°C° 0 mm 5 m/s 739 mmHg 92%
    01:00 +6°C° 0 mm 4 m/s 739 mmHg 93%
    02:00 +6°C° 0 mm 4 m/s 740 mmHg 94%
    03:00 +6°C° 0 mm 4 m/s 740 mmHg 92%
    04:00 +6°C° 0 mm 5 m/s 740 mmHg 91%
    05:00 +6°C° 0 mm 5 m/s 741 mmHg 89%
    06:00 +6°C° 0.1 mm 5 m/s 741 mmHg 89%
    07:00 +6°C° 0.1 mm 4 m/s 741 mmHg 89%
    08:00 +6°C° 0.1 mm 4 m/s 741 mmHg 89%
    09:00 +7°C° 0.1 mm 4 m/s 742 mmHg 86%
    10:00 +7°C° 0.1 mm 5 m/s 742 mmHg 84%
    11:00 +8°C° 0.1 mm 5 m/s 743 mmHg 82%
    12:00 +8°C° 0 mm 4 m/s 743 mmHg 77%
    13:00 +10°C° 0 mm 4 m/s 743 mmHg 72%
    14:00 +11°C° 0 mm 4 m/s 743 mmHg 67%
    15:00 +11°C° 0 mm 3 m/s 743 mmHg 67%
    16:00 +11°C° 0 mm 3 m/s 743 mmHg 67%
    17:00 +11°C° 0 mm 3 m/s 743 mmHg 67%
    18:00 +10°C° 0 mm 3 m/s 743 mmHg 73%
    19:00 +8°C° 0 mm 2 m/s 743 mmHg 78%
    20:00 +7°C° 0 mm 2 m/s 743 mmHg 83%
    21:00 +7°C° 0 mm 3 m/s 743 mmHg 85%
    22:00 +5°C° 0 mm 3 m/s 743 mmHg 87%
    23:00 +5°C° 0 mm 3 m/s 743 mmHg 89%

    Amanhã, 20 Setembro, Sexta-feira

    Tempo Temperatura Precipitação Vento Pressão Humidade
    00:00 +5°C° 0 mm 3 m/s 743 mmHg 91%
    01:00 +4°C° 0 mm 3 m/s 743 mmHg 92%
    02:00 +4°C° 0 mm 4 m/s 743 mmHg 94%
    03:00 +4°C° 0 mm 4 m/s 743 mmHg 92%
    04:00 +5°C° 0 mm 5 m/s 743 mmHg 90%
    05:00 +4°C° 0 mm 6 m/s 743 mmHg 87%
    06:00 +4°C° 0 mm 6 m/s 743 mmHg 84%
    07:00 +4°C° 0 mm 6 m/s 743 mmHg 81%
    08:00 +4°C° 0 mm 6 m/s 743 mmHg 77%
    09:00 +5°C° 0 mm 6 m/s 744 mmHg 74%
    10:00 +5°C° 0 mm 6 m/s 744 mmHg 71%
    11:00 +7°C° 0 mm 6 m/s 744 mmHg 67%
    12:00 +8°C° 0 mm 6 m/s 744 mmHg 63%
    13:00 +9°C° 0 mm 6 m/s 744 mmHg 59%
    14:00 +9°C° 0 mm 6 m/s 744 mmHg 55%
    15:00 +9°C° 0.1 mm 5 m/s 745 mmHg 56%
    16:00 +8°C° 0.1 mm 5 m/s 745 mmHg 57%
    17:00 +8°C° 0.1 mm 4 m/s 745 mmHg 58%
    18:00 +7°C° 0 mm 4 m/s 745 mmHg 61%
    19:00 +5°C° 0 mm 3 m/s 745 mmHg 65%
    20:00 +4°C° 0 mm 3 m/s 746 mmHg 68%
    21:00 +4°C° 0 mm 2 m/s 746 mmHg 73%
    22:00 +4°C° 0 mm 2 m/s 746 mmHg 77%
    23:00 +3°C° 0 mm 2 m/s 746 mmHg 82%

    Depois de amanhã, 21 Setembro, Sábado

    Tempo Temperatura Precipitação Vento Pressão Humidade
    00:00 +3°C° 0 mm 2 m/s 746 mmHg 82%
    01:00 +3°C° 0 mm 2 m/s 746 mmHg 82%
    02:00 +3°C° 0 mm 2 m/s 746 mmHg 83%
    03:00 +3°C° 0 mm 2 m/s 746 mmHg 81%
    04:00 +3°C° 0 mm 3 m/s 746 mmHg 80%
    05:00 +3°C° 0 mm 3 m/s 745 mmHg 78%
    06:00 +4°C° 0 mm 3 m/s 745 mmHg 76%
    07:00 +5°C° 0 mm 4 m/s 745 mmHg 74%
    08:00 +6°C° 0 mm 5 m/s 744 mmHg 72%
    09:00 +6°C° 0.7 mm 5 m/s 744 mmHg 79%
    10:00 +5°C° 0.7 mm 6 m/s 743 mmHg 86%
    11:00 +5°C° 0.7 mm 6 m/s 743 mmHg 93%
    12:00 +7°C° 0.4 mm 6 m/s 743 mmHg 93%
    13:00 +8°C° 0.4 mm 7 m/s 743 mmHg 93%
    14:00 +9°C° 0.4 mm 7 m/s 742 mmHg 92%
    15:00 +10°C° 0.1 mm 7 m/s 742 mmHg 91%
    16:00 +10°C° 0.1 mm 6 m/s 742 mmHg 90%
    17:00 +11°C° 0.1 mm 6 m/s 742 mmHg 89%
    18:00 +11°C° 0 mm 6 m/s 742 mmHg 90%
    19:00 +10°C° 0 mm 6 m/s 742 mmHg 91%
    20:00 +10°C° 0 mm 6 m/s 743 mmHg 92%
    21:00 +10°C° 0 mm 6 m/s 742 mmHg 92%
    22:00 +9°C° 0 mm 5 m/s 742 mmHg 93%
    23:00 +9°C° 0 mm 5 m/s 742 mmHg 93%

    22 Setembro, Domingo

    Tempo Temperatura Precipitação Vento Pressão Humidade
    00:00 +9°C° 0 mm 6 m/s 742 mmHg 93%
    01:00 +9°C° 0 mm 6 m/s 742 mmHg 94%
    02:00 +8°C° 0 mm 6 m/s 742 mmHg 94%
    03:00 +9°C° 0 mm 6 m/s 742 mmHg 94%
    04:00 +9°C° 0 mm 5 m/s 742 mmHg 93%
    05:00 +9°C° 0 mm 5 m/s 742 mmHg 92%
    06:00 +9°C° 0 mm 5 m/s 742 mmHg 91%
    07:00 +9°C° 0 mm 6 m/s 742 mmHg 90%
    08:00 +9°C° 0 mm 6 m/s 742 mmHg 89%
    09:00 +11°C° 0 mm 6 m/s 742 mmHg 84%
    10:00 +13°C° 0 mm 6 m/s 743 mmHg 78%
    11:00 +15°C° 0 mm 5 m/s 743 mmHg 72%
    12:00 +15°C° 0 mm 5 m/s 743 mmHg 70%
    13:00 +16°C° 0 mm 5 m/s 743 mmHg 68%
    14:00 +16°C° 0 mm 5 m/s 743 mmHg 65%
    15:00 +15°C° 0 mm 5 m/s 743 mmHg 68%
    16:00 +14°C° 0 mm 4 m/s 743 mmHg 71%
    17:00 +13°C° 0 mm 3 m/s 743 mmHg 74%
    18:00 +12°C° 0 mm 3 m/s 743 mmHg 75%
    19:00 +10°C° 0 mm 3 m/s 744 mmHg 75%
    20:00 +9°C° 0 mm 2 m/s 744 mmHg 76%
    21:00 +8°C° 0 mm 2 m/s 744 mmHg 73%
    22:00 +7°C° 0 mm 2 m/s 744 mmHg 70%
    23:00 +6°C° 0 mm 2 m/s 744 mmHg 67%

    23 Setembro, Segunda-feira

    Tempo Temperatura Precipitação Vento Pressão Humidade
    00:00 +5°C° 0 mm 3 m/s 744 mmHg 69%
    01:00 +4°C° 0 mm 3 m/s 744 mmHg 71%
    02:00 +4°C° 0 mm 3 m/s 744 mmHg 74%
    03:00 +4°C° 0 mm 3 m/s 744 mmHg 74%
    04:00 +4°C° 0 mm 3 m/s 744 mmHg 75%
    05:00 +4°C° 0 mm 3 m/s 743 mmHg 76%
    06:00 +4°C° 0 mm 4 m/s 743 mmHg 74%
    07:00 +5°C° 0 mm 4 m/s 743 mmHg 72%
    08:00 +6°C° 0 mm 5 m/s 743 mmHg 70%
    09:00 +8°C° 0 mm 5 m/s 742 mmHg 69%
    10:00 +10°C° 0 mm 5 m/s 742 mmHg 67%
    11:00 +12°C° 0 mm 5 m/s 742 mmHg 66%
    12:00 +13°C° 0 mm 5 m/s 741 mmHg 65%
    13:00 +15°C° 0 mm 5 m/s 740 mmHg 65%
    14:00 +16°C° 0 mm 5 m/s 739 mmHg 64%
    15:00 +15°C° 0 mm 5 m/s 739 mmHg 67%
    16:00 +15°C° 0 mm 4 m/s 738 mmHg 70%
    17:00 +14°C° 0 mm 3 m/s 738 mmHg 73%
    18:00 +14°C° 0.1 mm 3 m/s 737 mmHg 77%
    19:00 +13°C° 0.1 mm 3 m/s 737 mmHg 82%
    20:00 +13°C° 0.1 mm 2 m/s 736 mmHg 86%
    21:00 +13°C° 0.1 mm 2 m/s 736 mmHg 86%
    22:00 +12°C° 0.1 mm 2 m/s 735 mmHg 87%
    23:00 +12°C° 0.1 mm 2 m/s 735 mmHg 88%

    24 Setembro, Terça-feira

    Tempo Temperatura Precipitação Vento Pressão Humidade
    00:00 +12°C° 0 mm 2 m/s 735 mmHg 88%
    01:00 +12°C° 0 mm 1 m/s 734 mmHg 89%
    02:00 +11°C° 0 mm 1 m/s 734 mmHg 89%
    03:00 +11°C° 0 mm 1 m/s 734 mmHg 90%
    04:00 +11°C° 0 mm 1 m/s 734 mmHg 91%
    05:00 +10°C° 0 mm 0 m/s 733 mmHg 92%
    06:00 +11°C° 0 mm 1 m/s 733 mmHg 91%
    07:00 +12°C° 0 mm 1 m/s 733 mmHg 90%
    08:00 +12°C° 0 mm 1 m/s 733 mmHg 89%
    09:00 +13°C° 0 mm 1 m/s 734 mmHg 85%
    10:00 +14°C° 0 mm 1 m/s 734 mmHg 80%
    11:00 +15°C° 0 mm 1 m/s 734 mmHg 76%
    12:00 +16°C° 0 mm 1 m/s 734 mmHg 75%
    13:00 +16°C° 0 mm 1 m/s 734 mmHg 73%
    14:00 +16°C° 0 mm 1 m/s 734 mmHg 72%
    15:00 +16°C° 0 mm 2 m/s 734 mmHg 74%
    16:00 +15°C° 0 mm 2 m/s 735 mmHg 75%
    17:00 +15°C° 0 mm 2 m/s 735 mmHg 77%
    18:00 +15°C° 0 mm 1 m/s 735 mmHg 79%
    19:00 +14°C° 0 mm 1 m/s 735 mmHg 80%
    20:00 +14°C° 0 mm 1 m/s 736 mmHg 81%
    21:00 +14°C° 0 mm 1 m/s 736 mmHg 81%
    22:00 +13°C° 0 mm 1 m/s 736 mmHg 81%
    23:00 +12°C° 0 mm 0 m/s 736 mmHg 82%
    Mostrar mais